Portada
METAR-TAF:

METAR-TAF

Aeropuertos :

Aeropuerto Internacional Doctor Fernando Piragine Niveyro

Corrientes, Argentina

latitud: 27-27S, longitud: 058-46W, altitud: 62 m

Observación

El informe se hizo hace 43 minutos, a las 22:00 UTC
Viento 3 kt del noreste
Temperatura 35°C
Humedad 44%
Presión 1007 hPa
Visibilidad: 7000 m

METAR: SARC 222200Z 05003KT 7000 NSC 35/21 Q1007

Hora: 19:43 (22:43 UTC)


TAF: falta

Observaciones y pronósticos meteorológicos de más de 4000 aeropuertos (mensajes METAR y TAF).

Los puntos amarillos y rojos representan las estaciones disponibles.

Ponga el ratón en el punto deseado para ver el nombre de la estación.

Haga clic para ver las observaciones y los pronósticos meteorológicos.

Para cambiar el mapa : haga clic en los botones verdes con una cruz de color negro para hacer un zoom, en el botón verde con un guión para alejar o en las flechas verdes para mapas adyacentes.


METAR-TAF: